Home > Weather > Eisenhüttenstadt > Past weeks

Flag for Germany Past Weather in Eisenhüttenstadt, Brandenburg, Germany — Yesterday and Last 2 Weeks

Now
75 °F

Passing clouds.


Feels Like: 77 °F
Forecast: 59 / 73 °F
Wind: 3 mph from South

Location: Zielona Gora Airport

Current Time: May 24, 2016 at 5:51:26 PM

Latest Report: May 24, 2016 at 5:00 PM


Visibility: N/A

Pressure: 29.71 "Hg

Humidity: 74%

Dew Point: 66 °F

Location of EisenhüttenstadtLocation

Past Weather in Eisenhüttenstadt — Graph

°F

Eisenhüttenstadt Temperature Yesterday

Maximum temperature yesterday: 86 °F (at 4:00 PM)
Minimum temperature yesterday: 50 °F (at 5:30 AM)
Average temperature yesterday: 76 °F

High & Low Weather Summary for the Past Weeks

 TemperatureHumidityPressure
High86 °F (May 23, 4:00 PM)100% (May 11, 5:30 AM)30.12 "Hg (May 11, 5:30 AM)
Low41 °F (May 15, 5:30 AM)26% (May 22, 3:30 PM)29.45 "Hg (May 13, 2:00 PM)
Average63 °F59%29.85 "Hg
* Reported May 9 4:00 PM — May 24 4:30 PM, Eisenhüttenstadt, Weather by CustomWeather, © 2016

Note: Actual official high and low records may vary slightly from our data, if they occured in-between our weather recording intervals... More about our weather records

Advertising

Eisenhüttenstadt Weather History for the Previous 24 Hours

Scroll right to see more
 ConditionsComfort  
Time TempWeatherWind HumidityBarometerVisibility
4:30 PM
Tue, May 24
72 °FSprinkles. Scattered clouds.7 mph73%29.71 "HgN/A
4:00 PM81 °FSprinkles. Scattered clouds.3 mph37%29.71 "HgN/A
3:30 PM82 °FSunny.2 mph35%29.71 "Hg10 mi
3:00 PM81 °FSunny.3 mph39%29.71 "Hg10 mi
2:30 PM81 °FSunny.2 mph39%29.74 "Hg10 mi
2:00 PM82 °FPassing clouds.8 mph40%29.74 "HgN/A
1:30 PM81 °FPassing clouds.7 mph42%29.74 "HgN/A
1:00 PM81 °FPassing clouds.7 mph42%29.74 "HgN/A
12:30 PM77 °FPassing clouds.8 mph47%29.74 "HgN/A
12:00 PM77 °FPassing clouds.8 mph47%29.74 "HgN/A
11:30 AM77 °FSunny.5 mph51%29.74 "Hg10 mi
11:00 AM75 °FPassing clouds.5 mph54%29.74 "HgN/A
10:30 AM73 °FSunny.3 mph57%29.74 "Hg10 mi
10:00 AM72 °FPassing clouds.5 mph61%29.74 "HgN/A
9:30 AM70 °FSunny.2 mph64%29.74 "Hg10 mi
9:00 AM68 °FSunny.2 mph69%29.74 "Hg10 mi
8:30 AM68 °FSunny.1 mph64%29.74 "Hg10 mi
8:00 AM64 °FSunny.2 mph78%29.74 "Hg10 mi
7:30 AM63 °FSunny.2 mph83%29.74 "Hg10 mi
7:00 AM61 °FPassing clouds.5 mph88%29.74 "HgN/A
6:30 AM57 °FSunny.7 mph100%29.74 "Hg10 mi
6:00 AM57 °FSunny.6 mph94%29.74 "Hg10 mi
5:30 AM55 °FClear.7 mph100%29.71 "Hg10 mi
10:00 PM
Mon, May 23
70 °FClear.6 mph50%29.71 "Hg10 mi
9:30 PM72 °FSunny.6 mph47%29.71 "Hg10 mi
9:00 PM73 °FSunny.6 mph41%29.68 "Hg10 mi
8:30 PM75 °FSunny.5 mph39%29.71 "Hg10 mi
8:00 PM77 °FPassing clouds.5 mph36%29.71 "HgN/A
7:30 PM81 °FSunny.6 mph30%29.68 "Hg10 mi
7:00 PM82 °FPassing clouds.8 mph28%29.71 "HgN/A
6:30 PM82 °FPassing clouds.9 mph28%29.71 "HgN/A
6:00 PM84 °FPassing clouds.10 mph27%29.71 "HgN/A
5:30 PM84 °FPassing clouds.10 mph27%29.71 "HgN/A
5:00 PM84 °FPassing clouds.10 mph27%29.71 "HgN/A
Weather by CustomWeather, © 2016

See weather overviewHow to use our weather pages